Location: lozzo di cadore
(46.4899°N, 12.4508°E)
Time: 13:30:10
(UTC+02:00)

Envisat - Pass Details

Date: 05 May 2025
Orbit: 761 x 763 km, 98.3° (Epoch: 14 May)

Event Time Altitude Azimuth Distance (km) Brightness Sun altitude
Rises 04:17:37 0° 13° (NNE) 3,234 7.2 -14.0°
Reaches altitude 10° 04:19:56 10° 12° (NNE) 2,304 6.3 -13.7°
Maximum altitude 04:25:01 83° 287° (WNW) 774 3.0 -13.0°
Enters shadow 04:29:34 13° 199° (SSW) 2,093 4.7 -12.4°
